#timestamp,LO_Frequency,Hit,StdDev 
1513706415.2,286047000.4,N
1513706435.9,286047001.5,N
1513706455.7,286047002.2,N
1513706475.6,286047001.6,N
1513706495.4,286047001.5,N
1513706515.3,286047002.8,N
1513706535.1,286047000.3,N
1513706536.0,286047000.3,N
1513706555.8,286046998.5,N
1513706575.7,286046998.2,N
1513706595.5,286047000.6,N
1513706615.3,286047003.8,N
1513706635.2,286047003.9,N
1513706655.0,286047005.6,Y
1513706655.9,286047005.6,P
1513706675.8,286047003.3,N
1513706695.6,286047003.6,N
1513706715.4,286047001.4,N
1513706735.3,286047002.7,N
1513706755.1,286047002.6,N
1513706775.9,286047002.0,N
1513706795.7,286047001.9,N
1513706815.5,286047001.9,N
1513706835.4,286047001.7,N
1513706855.2,286046999.9,N
1513706875.0,286047000.9,N
1513706876.0,286047000.9,N
1513706895.8,286047000.3,N
1513706915.6,286047000.9,N
1513706935.5,286047000.5,N
1513706955.3,286047002.4,N
1513706975.1,286047004.4,Y
1513706995.9,286047000.8,P
1513707015.7,286046998.9,N
1513707035.6,286046998.5,N
1513707055.4,286046996.6,N
1513707075.2,286046999.4,N
1513707095.1,286046999.4,N
1513707096.0,286046999.4,N
1513707115.8,286046998.0,N
1513707135.7,286046995.9,N
1513707155.5,286046995.6,N
1513707175.3,286046995.0,N
1513707195.2,286046996.8,N
1513707215.0,286046997.7,N
1513707215.9,286046997.7,N
1513707235.8,286046999.2,N
1513707255.6,286046996.7,N
1513707275.4,286046995.4,N
1513707295.3,286046997.9,N
1513707315.1,286046998.8,N
1513707335.8,286046996.9,N
1513707355.7,286046999.4,N
1513707375.5,286047001.0,N
1513707395.4,286047000.6,N
1513707415.2,286046999.7,N
1513707435.0,286047004.3,N
1513707435.9,286047004.3,N
1513707455.8,286047001.3,N
1513707475.6,286047005.9,N
1513707495.4,286047005.5,N
1513707515.3,286047003.8,N
1513707535.1,286047003.1,N
1513707555.9,286047005.6,N
1513707575.7,286047003.8,N
1513707595.5,286047003.8,N
1513707615.4,286047003.0,N
1513707635.2,286047005.2,N
1513707655.1,286047002.9,N
1513707656.0,286047002.9,N
1513707675.8,286047002.9,N
1513707695.6,286047005.4,N
1513707715.5,286047003.0,N
1513707735.3,286047002.9,N
1513707755.2,286047007.5,N
1513707775.9,286047006.6,N
1513707795.7,286047010.5,Y
1513707815.6,286047006.8,P
1513707835.4,286047008.6,P
1513707855.3,286047010.0,P
1513707875.1,286047011.4,Y
1513707876.0,286047011.4,P
1513707895.8,286047004.9,N
1513707915.7,286047007.1,N
1513707935.5,286047004.1,N
1513707955.3,286047004.3,N
1513707975.2,286047004.4,N
1513707995.0,286047003.8,N
1513707995.9,286047003.8,N
1513708015.8,286047000.9,N
1513708035.6,286047000.9,N
1513708055.4,286047000.2,N
1513708075.3,286046998.5,N
1513708095.1,286046999.0,N
1513708115.9,286046999.6,N
1513708135.7,286046999.6,N
1513708155.5,286046996.8,N
1513708175.4,286046997.8,N
1513708195.2,286046996.9,N
1513708215.1,286046999.3,N
1513708216.0,286046999.3,N
1513708235.8,286046997.2,N
1513708255.6,286046997.0,N
1513708275.5,286046995.5,N
1513708295.3,286046996.0,N
1513708315.1,286046995.9,N
1513708335.9,286046997.8,N
1513708355.7,286046997.3,N
1513708375.6,286046995.2,N
1513708395.4,286046994.3,N
1513708415.2,286046994.7,N
1513708435.1,286046994.7,N
1513708436.0,286046994.7,N
1513708455.8,286046992.3,N
1513708475.7,286046991.0,N
1513708495.5,286046991.5,N
1513708515.3,286046989.0,Y
1513708535.2,286046994.3,P
1513708555.0,286046992.8,P
1513708555.9,286046992.8,P
1513708575.8,286046991.4,Y
1513708595.6,286046997.0,P
1513708615.4,286046997.0,N
1513708635.3,286046997.0,N
1513708655.1,286046997.7,N
1513708675.9,286046997.7,N
1513708695.7,286046995.6,Y
1513708715.5,286047000.8,P
1513708735.4,286047000.1,N
1513708755.2,286047000.1,N
1513708775.0,286047002.1,N
1513708776.0,286047002.1,N
1513708795.8,286047001.7,N
1513708815.6,286046999.9,N
1513708835.5,286046999.8,N
1513708855.3,286047002.7,N
1513708875.1,286047003.9,N
1513708895.9,286047003.5,N
1513708915.7,286047002.5,N
1513708935.6,286047002.8,N
1513708955.4,286047001.9,N
1513708975.2,286047002.1,N
1513708995.1,286047004.4,N
1513708996.0,286047004.4,N
1513709015.8,286047001.7,N
1513709035.7,286047002.0,N
1513709055.5,286047002.0,N
1513709075.3,286047002.2,N
1513709095.2,286047002.5,N
1513709115.0,286047005.6,Y
1513709115.9,286047005.6,P
1513709135.8,286047003.9,N
1513709155.6,286047004.4,N
1513709175.4,286047003.2,N
1513709195.3,286047004.0,Y
1513709215.1,286047000.6,P
1513709235.9,286046999.1,N
1513709255.7,286046996.6,N
1513709275.5,286046998.7,N
1513709295.4,286047000.7,N
1513709315.2,286047001.1,N
1513709335.1,286046999.4,N
1513709336.0,286046999.4,N
1513709355.8,286046994.9,N
1513709375.6,286046995.1,N
1513709395.5,286046997.8,N
1513709415.3,286046999.9,N
1513709435.1,286047000.2,N
1513709455.9,286047000.2,N
1513709475.7,286047000.4,N
1513709495.6,286047003.8,N
1513709515.4,286047010.6,Y
1513709535.2,286047010.1,P
1513709555.1,286047010.0,N
1513709556.0,286047010.0,N
1513709575.8,286047009.1,N
1513709595.7,286047006.9,N
1513709615.5,286047005.8,N
1513709635.3,286047004.8,N
1513709655.2,286047007.8,N
1513709675.0,286047011.8,Y
1513709675.9,286047011.8,P
1513709695.8,286047003.1,N
1513709715.6,286047003.5,N
1513709735.4,286047002.5,N
1513709755.3,286047000.7,N
1513709775.1,286046998.1,N
1513709795.9,286046999.0,N
1513709815.7,286046998.9,N
1513709835.5,286046997.4,N
1513709855.4,286046996.6,N
1513709875.2,286046997.4,N
1513709895.0,286046997.6,N
1513709895.9,286046997.6,N
1513709915.8,286046995.7,N
1513709935.6,286046995.9,N
1513709955.5,286046993.6,N
1513709975.3,286046993.3,N
1513709995.1,286046993.4,N
